Ludington, MI

4:10 PM EST on November 17, 2019 (GMT -0500)
Mason County

Weather History for KLDM - August, 2019

Change the Weather History Date:

Thursday, August 29, 2019

  Actual Average Record
Temperature  
Mean Temperature 62 °F -  
Max Temperature 75 °F 76 °F 92 °F (1991)
Min Temperature 50 °F 57 °F 37 °F (1968)
Degree Days  
Heating Degree Days 2    
Growing Degree Days 12 (Base 50)    
Moisture  
Dew Point 57 °F    
Average Humidity 77    
Maximum Humidity 96    
Minimum Humidity 53    
Precipitation  
Precipitation 0.19 in - - ()
Sea Level Pressure  
Sea Level Pressure 29.84 in    
Wind  
Wind Speed 6 mph (WSW)    
Max Wind Speed 26 mph    
Max Gust Speed 32 mph    
Visibility 10 miles    
Events Rain    
Averages and records for this station are not official NWS values.
T = Trace of Precipitation, MM = Missing Value Source: NWS Daily Summary

Daily Weather History Graph

Daily Weather History Graph

Search for Another Location

Airport or City:

Astronomy

Aug. 29, 2019 Rise Set
Actual Time 7:05 AM EDT 8:27 PM EDT
Civil Twilight 6:35 AM EDT 8:56 PM EDT
Nautical Twilight 5:59 AM EDT 9:32 PM EDT
Astronomical Twilight 5:20 AM EDT 10:11 PM EDT
Moon 5:45 AM EDT (8/29) 8:26 PM EDT (8/29)
Length of Visible Light 14h 21m
Length of Day
13h 21m
Waning Crescent, 1% of the Moon is Illuminated
Aug 29
Waning Crescent
Aug 30
New
Sep 5
First Quarter
Sep 14
Full
Sep 21
Last Quarter

Hourly Weather History & Observations

Time (EDT) Temp. Dew Point Humidity Pressure Visibility Wind Dir Wind Speed Gust Speed Precip Events Conditions
12:15 AM 55.9 °F 53.6 °F 92% 29.91 in 10.0 mi Calm Calm - N/A   Clear
12:16 AM 55.8 °F 53.4 °F 92% 29.91 in 10.0 mi Calm Calm - N/A   Clear
12:35 AM 54.0 °F 52.3 °F 94% 29.91 in 10.0 mi Calm Calm - N/A   Clear
12:40 AM 53.4 °F 51.8 °F 94% 29.91 in 10.0 mi Calm Calm - N/A   Clear
12:58 AM 52.9 °F 51.6 °F 95% 29.91 in 10.0 mi Calm Calm - N/A   Clear
1:16 AM 53.6 °F 52.5 °F 96% 29.91 in 10.0 mi Calm Calm - N/A   Clear
1:35 AM 53.2 °F 52.2 °F 96% 29.91 in 10.0 mi Calm Calm - N/A   Clear
1:36 AM 53.4 °F 52.2 °F 95% 29.91 in 10.0 mi Calm Calm - N/A   Clear
1:55 AM 52.3 °F 51.1 °F 95% 29.91 in 10.0 mi Calm Calm - N/A   Clear
1:56 AM 52.0 °F 50.7 °F 95% 29.91 in 10.0 mi Calm Calm - N/A   Clear
2:19 AM 52.3 °F 51.3 °F 96% 29.91 in 10.0 mi Calm Calm - N/A   Clear
2:37 AM 54.3 °F 51.8 °F 91% 29.91 in 10.0 mi WSW 3.5 mph - N/A   Clear
2:55 AM 51.8 °F 50.4 °F 95% 29.90 in 10.0 mi Calm Calm - N/A   Clear
3:15 AM 60.3 °F 52.9 °F 77% 29.91 in 10.0 mi West 3.5 mph - N/A   Clear
3:39 AM 63.0 °F 52.7 °F 69% 29.90 in 10.0 mi West 5.8 mph - N/A   Clear
3:58 AM 63.1 °F 52.7 °F 69% 29.90 in 10.0 mi West 3.5 mph - N/A   Clear
4:16 AM 63.3 °F 53.6 °F 71% 29.91 in 10.0 mi WSW 4.6 mph - N/A   Clear
4:35 AM 63.1 °F 54.5 °F 73% 29.91 in 10.0 mi West 4.6 mph - N/A   Clear
4:55 AM 63.0 °F 53.6 °F 71% 29.90 in 10.0 mi Calm Calm - N/A   Clear
5:19 AM 62.8 °F 54.5 °F 74% 29.90 in 10.0 mi West 3.5 mph - N/A   Clear
5:37 AM 62.4 °F 54.7 °F 76% 29.90 in 10.0 mi West 3.5 mph - N/A   Clear
5:55 AM 62.6 °F 54.9 °F 76% 29.90 in 10.0 mi Calm Calm - N/A   Clear
6:15 AM 62.1 °F 55.0 °F 78% 29.90 in 10.0 mi Calm Calm - N/A   Clear
6:35 AM 51.8 °F 50.5 °F 95% 29.91 in 10.0 mi Calm Calm - N/A   Clear
6:39 AM 51.8 °F 50.4 °F 95% 29.91 in 10.0 mi Calm Calm - N/A   Clear
6:58 AM 50.2 °F 48.9 °F 95% 29.91 in 10.0 mi Calm Calm - N/A   Clear
7:16 AM 50.7 °F 49.5 °F 95% 29.91 in 10.0 mi ESE 3.5 mph - N/A   Clear
7:35 AM 50.5 °F 49.3 °F 95% 29.91 in 10.0 mi Calm Calm - N/A   Clear
7:55 AM 52.5 °F 51.3 °F 95% 29.91 in 10.0 mi Calm Calm - N/A   Clear
8:19 AM 55.9 °F 54.7 °F 96% 29.91 in 10.0 mi ESE 3.5 mph - N/A   Clear
8:37 AM 62.2 °F 57.6 °F 85% 29.90 in 10.0 mi SW 8.1 mph - N/A   Clear
8:55 AM 65.5 °F 57.9 °F 77% 29.90 in 10.0 mi SW 10.4 mph - N/A   Clear
8:56 AM 65.5 °F 58.1 °F 77% 29.90 in 10.0 mi SW 9.2 mph - N/A   Clear
9:35 AM 67.1 °F 57.6 °F 71% 29.90 in 10.0 mi SW 12.7 mph - N/A   Clear
9:58 AM 68.0 °F 57.0 °F 68% 29.89 in 10.0 mi SW 13.8 mph - N/A   Clear
10:16 AM 68.2 °F 57.0 °F 67% 29.88 in 10.0 mi SW 13.8 mph - N/A   Clear
10:35 AM 69.1 °F 57.0 °F 65% 29.87 in 10.0 mi SSW 13.8 mph 19.6 mph N/A   Clear
10:36 AM 68.9 °F 56.8 °F 65% 29.87 in 10.0 mi SSW 15.0 mph 19.6 mph N/A   Clear
10:55 AM 69.8 °F 57.0 °F 64% 29.87 in 10.0 mi SW 17.3 mph 20.7 mph N/A   Clear
11:19 AM 70.5 °F 57.2 °F 63% 29.87 in 10.0 mi SW 15.0 mph 21.9 mph N/A   Clear
11:37 AM 70.7 °F 57.0 °F 62% 29.88 in 10.0 mi SW 13.8 mph 23.0 mph N/A   Clear
11:55 AM 70.7 °F 56.7 °F 61% 29.87 in 10.0 mi SSW 16.1 mph 24.2 mph N/A   Clear
11:56 AM 70.7 °F 56.7 °F 61% 29.87 in 10.0 mi SSW 16.1 mph 24.2 mph N/A   Clear
12:15 PM 71.6 °F 56.8 °F 60% 29.87 in 10.0 mi SW 19.6 mph 26.5 mph N/A   Clear
12:16 PM 71.6 °F 56.8 °F 60% 29.87 in 10.0 mi SW 19.6 mph 26.5 mph N/A   Clear
12:35 PM 71.8 °F 57.9 °F 62% 29.86 in 10.0 mi SSW 17.3 mph 25.3 mph N/A   Clear
12:40 PM 71.6 °F 57.6 °F 61% 29.86 in 10.0 mi SSW 17.3 mph 25.3 mph N/A   Clear
12:57 PM 71.1 °F 56.5 °F 60% 29.84 in 10.0 mi SSW 19.6 mph 28.8 mph N/A   Scattered Clouds
1:16 PM 72.1 °F 56.3 °F 57% 29.82 in 10.0 mi SSW 18.4 mph 31.1 mph N/A   Scattered Clouds
1:35 PM 73.4 °F 56.7 °F 56% 29.81 in 10.0 mi SSW 13.8 mph 24.2 mph N/A   Scattered Clouds
1:55 PM 73.8 °F 56.1 °F 54% 29.79 in 10.0 mi SSW 18.4 mph 26.5 mph N/A   Scattered Clouds
1:56 PM 73.9 °F 56.3 °F 54% 29.79 in 10.0 mi SSW 18.4 mph 26.5 mph N/A   Scattered Clouds
2:19 PM 73.8 °F 55.4 °F 53% 29.79 in 10.0 mi SSW 13.8 mph 27.6 mph N/A   Mostly Cloudy
2:37 PM 74.3 °F 56.7 °F 54% 29.79 in 10.0 mi SSW 21.9 mph 28.8 mph N/A   Overcast
2:55 PM 72.7 °F 57.2 °F 58% 29.77 in 10.0 mi SSW 18.4 mph 29.9 mph N/A   Overcast
3:15 PM 75.9 °F 58.5 °F 55% 29.75 in 10.0 mi South 26.5 mph 31.1 mph N/A   Scattered Clouds
3:35 PM 73.9 °F 58.5 °F 58% 29.74 in 10.0 mi SSW 18.4 mph 28.8 mph N/A   Scattered Clouds
3:40 PM 73.4 °F 58.3 °F 59% 29.72 in 10.0 mi South 19.6 mph 25.3 mph N/A   Scattered Clouds
3:58 PM 72.7 °F 58.1 °F 60% 29.70 in 10.0 mi South 19.6 mph 27.6 mph N/A   Overcast
4:16 PM 72.9 °F 58.5 °F 60% 29.71 in 10.0 mi South 11.5 mph 21.9 mph N/A   Overcast
4:35 PM 69.1 °F 62.2 °F 79% 29.74 in 1.5 mi SSW 5.8 mph - 0.17 in Rain Heavy Rain
4:36 PM 68.9 °F 62.4 °F 80% 29.74 in 2.0 mi SSW 5.8 mph - 0.18 in Rain Heavy Rain
4:55 PM 70.0 °F 63.5 °F 80% 29.74 in 10.0 mi SW 17.3 mph 28.8 mph 0.19 in   Mostly Cloudy
5:19 PM 69.3 °F 65.3 °F 87% 29.74 in 10.0 mi SW 21.9 mph 32.2 mph N/A Rain Light Rain
5:37 PM 68.5 °F 65.3 °F 89% 29.74 in 10.0 mi SW 17.3 mph 26.5 mph N/A   Overcast
5:55 PM 69.3 °F 65.7 °F 88% 29.74 in 10.0 mi SW 10.4 mph 13.8 mph N/A   Overcast
5:56 PM 69.4 °F 65.7 °F 88% 29.74 in 10.0 mi SW 9.2 mph 13.8 mph N/A   Overcast
6:15 PM 71.8 °F 66.0 °F 82% 29.74 in 10.0 mi SW 9.2 mph 16.1 mph N/A   Mostly Cloudy
6:35 PM 72.3 °F 65.8 °F 80% 29.74 in 10.0 mi WSW 4.6 mph - N/A   Scattered Clouds
6:57 PM 72.5 °F 65.3 °F 78% 29.74 in 10.0 mi WNW 6.9 mph - N/A   Clear
7:16 PM 71.2 °F 64.4 °F 79% 29.75 in 10.0 mi NW 8.1 mph - N/A   Clear
7:35 PM 70.2 °F 63.1 °F 78% 29.76 in 10.0 mi NNW 5.8 mph - N/A   Clear
7:36 PM 70.0 °F 63.1 °F 79% 29.76 in 10.0 mi NNW 6.9 mph - N/A   Clear
7:55 PM 68.9 °F 61.7 °F 78% 29.77 in 10.0 mi NNW 5.8 mph - N/A   Clear
7:56 PM 68.7 °F 61.7 °F 78% 29.77 in 10.0 mi NNW 5.8 mph - N/A   Clear
8:19 PM 67.1 °F 61.0 °F 81% 29.78 in 10.0 mi NNW 4.6 mph - N/A   Clear
8:37 PM 64.4 °F 61.2 °F 89% 29.78 in 10.0 mi Calm Calm - N/A   Scattered Clouds
8:55 PM 63.1 °F 61.3 °F 94% 29.79 in 7.0 mi Calm Calm - N/A   Scattered Clouds
9:15 PM 61.0 °F 59.7 °F 96% 29.79 in 1.5 mi Calm Calm - N/A   Scattered Clouds
9:16 PM 60.6 °F 59.4 °F 96% 29.79 in 1.2 mi Calm Calm - N/A   Scattered Clouds
9:35 PM 60.1 °F 58.8 °F 96% 29.80 in 10.0 mi Calm Calm - N/A   Clear
9:40 PM 59.5 °F 58.3 °F 96% 29.80 in 10.0 mi NNW 4.6 mph - N/A   Clear
9:58 PM 65.5 °F 57.7 °F 76% 29.81 in 10.0 mi NNW 9.2 mph - N/A   Clear
10:16 PM 67.3 °F 56.5 °F 68% 29.82 in 10.0 mi NNW 9.2 mph - N/A   Clear
10:35 PM 68.2 °F 55.9 °F 65% 29.83 in 10.0 mi NNW 8.1 mph - N/A   Clear
10:55 PM 67.8 °F 56.5 °F 67% 29.84 in 10.0 mi NNW 8.1 mph - N/A   Clear
10:56 PM 67.6 °F 56.7 °F 68% 29.84 in 10.0 mi NNW 8.1 mph - N/A   Clear
11:19 PM 65.5 °F 57.2 °F 75% 29.85 in 10.0 mi NNW 6.9 mph - N/A   Clear
11:37 PM 65.7 °F 56.5 °F 72% 29.86 in 10.0 mi NNW 8.1 mph - N/A   Clear
11:55 PM 65.5 °F 56.7 °F 73% 29.87 in 10.0 mi NNW 5.8 mph - N/A   Clear